Tracking 23114 objects as of 15-May-2021
HD Live streaming from Space Station
objects crossing your sky now

INDEX DEB


INDEX DEB is no longer on orbit


NORAD ID: 28829
Int'l Code: 2005-031G
Perigee: N/A
Apogee: N/A
Inclination: N/A
Period: N/A
Semi major axis: N/A
RCS: N/A
Launch date: August 23, 2005
Source: Japan (JPN)
Launch site: TYURATAM MISSILE AND SPACE COMPLEX (TTMTR)
Decay date: 2014-07-26

Note: This is SATELLITE DEBRIS
aabbcc
Your satellite tracking list
Your tracking list is empty




NASA's NSSDC Master Catalog

Two Line Element Set (TLE):
1 28829U 05031G   14207.45057872  .40627042  26229-5  26641-2 0  9992
2 28829 097.9738 195.4614 0018849 188.6488 272.8996 16.39434464485731
Source of the keplerian elements: AFSPC